User: anonymous   Login
Location: Unspecified
(0.0000°N, 0.0000°E)
Time: 19:20:54
(UTC+00:00)
Language:

AIST 1 - Orbit

View from above orbital plane
View from above orbital plane
View from above satellite
View from above satellite

Ground track
Ground track

The orbit data is extracted from the following two-line orbital elements,

1 39492U 13078C   18344.42793535  .00000194  00000-0  18496-4 0  9990
2 39492  82.4210  25.2218 0021284  46.2027 314.0950 14.87773660268696
Epoch (UTC): 10 December 2018 10:16:13
Eccentricity: 0.0021284
inclination: 82.4210°
perigee height: 590 km
apogee height: 620 km
right ascension of ascending node: 25.2218°
argument of perigee: 46.2027°
revolutions per day: 14.87773660
mean anomaly at epoch: 314.0950°
orbit number at epoch: 26869

The dashed part of the orbit path shows where the satellite is in the earth's shadow,  

DLR